Location: ??????
(52.1667°N, 54.4000°E)
Time: 18:02:32
(UTC+00:00)

Daily predictions for brighter satellites

Satellite Brightness Start Highest point End
(mag) Time Altitude Azimuth Time Altitude Azimuth Time Altitude Azimuth
Cosmos 1844 Rocket 3.5 13:22:48 10° SSE 13:27:47 33° ESE 13:32:46 10° NE
ADEOS Rocket 3.4 13:23:46 10° N 13:29:43 63° WNW 13:35:12 10° SSW
H-2A R/B 4.3 13:26:27 10° SSW 13:29:56 39° W 13:33:27 10° NNW
Cosmos 2227 Rocket 4.0 13:27:42 10° W 13:32:06 22° NW 13:36:31 10° NNE
USA 290 4.4 13:34:22 10° NNE 13:34:57 10° NE 13:35:33 10° NE
YAOGAN 1 3.9 13:32:52 10° ESE 13:35:51 19° ENE 13:38:52 10° NNE
Cosmos 1892 Rocket 3.8 13:31:52 10° SSE 13:36:01 47° E 13:40:11 10° NNE
TELKOM 3 4.3 13:34:38 10° SW 13:36:36 28° SSE 13:38:43 10° E
Meteor 1-24 Rocket 3.6 13:31:22 10° S 13:36:41 77° E 13:42:00 10° NNE
Cosmos 923 Rocket 4.2 13:31:44 10° NNW 13:37:00 55° ENE 13:42:12 10° SE
Okean O Rocket 1.6 13:32:48 10° SSE 13:37:12 67° ENE 13:41:36 10° N
Cosmos 2344 4.3 13:29:56 10° NW 13:38:17 58° NNE 13:49:37 10° ESE
SJ 16-02 2.2 13:35:40 10° SSE 13:39:32 31° ESE 13:43:26 10° NE
Cosmos 1680 Rocket 3.7 13:37:24 10° NNW 13:42:29 47° ENE 13:47:31 10° SE
Okean-O 3.8 13:39:58 10° ESE 13:43:24 23° ENE 13:46:52 10° N
RESURS DK-1 4.0 13:43:01 10° WSW 13:46:42 30° NW 13:50:23 10° NNE
ATLAS 5 CENTAUR R/B 2.2 13:42:39 10° WSW 13:46:45 51° NW 13:51:29 10° NE
Aureole 1 4.1 13:45:08 10° NNW 13:48:10 63° ENE 13:51:14 10° SE
Cosmos 2278 Rocket 4.0 13:49:47 10° E 13:50:23 10° E 13:50:58 10° E
CZ-4B R/B 3.5 13:49:38 10° SSE 13:55:13 78° WSW 14:00:56 10° NNW
ISS -2.9 13:52:03 10° SW 13:55:15 41° SSE 13:58:05 13° E
Cosmos 2297 Rocket 4.3 13:52:35 10° WNW 13:56:08 17° NNW 13:59:42 10° NNE
NOSS 3-1 (C) 4.0 13:52:57 10° NW 14:00:06 76° NE 14:08:33 10° SE
CZ-4C R/B 3.2 13:58:28 10° N 14:01:37 64° WNW 14:04:47 10° SSW
H-2A R/B 2.7 13:57:32 10° SE 14:02:01 33° ENE 14:06:39 10° N
Aureole 2 Rocket 2.0 14:00:20 10° SSW 14:03:23 79° ESE 14:06:32 10° NNE
Nadezhda 4 Rocket 4.1 13:58:58 10° SSE 14:05:00 56° E 14:11:01 10° NNE
H-2A R/B 3.7 14:01:45 10° S 14:05:44 47° W 14:09:55 10° NNW
IRS-1C Rocket 4.2 14:01:08 10° SE 14:06:13 52° ENE 14:11:19 10° N
Cosmos 44 4.2 14:03:23 10° S 14:07:40 32° ESE 14:11:16 15° ENE
Helios 1A Rocket 3.8 14:06:32 10° ESE 14:10:02 27° ENE 14:13:34 10° N
Cosmos 2058 Rocket 3.4 14:05:33 10° NNW 14:10:03 72° W 14:14:33 10° S
Cosmos 1818 3.6 14:10:28 10° SSW 14:15:52 72° SE 14:20:44 13° NE
APEX 4.5 14:09:15 10° SSW 14:16:08 90° ESE 14:22:01 10° NNE
Cosmos 1777 Rocket 4.4 14:12:18 10° SW 14:17:32 65° WNW 14:22:50 10° NNE
NOSS 2-1 (C) 4.3 14:15:06 10° S 14:17:46 22° ESE 14:18:47 19° E
Cosmos 2263 Rocket 3.5 14:14:21 10° WSW 14:19:36 37° NW 14:24:51 10° NNE
USA 229 DEB 3.9 14:12:40 10° NW 14:19:52 74° NE 14:27:31 10° SE
USA 229 3.9 14:12:47 10° NW 14:19:58 74° NE 14:27:36 10° SE
Feng Yun 1-1 Rocket 4.2 14:14:53 10° SSE 14:20:22 85° ENE 14:26:03 10° NNW
ERS-2 3.1 14:19:44 18° NE 14:21:31 27° E 14:24:39 10° SSE
Cosmos 2112 Rocket 3.9 14:16:23 10° NNW 14:21:40 78° ENE 14:26:53 10° SSE
ARGOS 3.6 14:18:21 10° SE 14:23:14 37° ENE 14:28:09 10° N
NOSS 2-1 (D) 4.1 14:20:51 10° S 14:23:38 25° ESE 14:24:33 22° E
Meteor 1-21 Rocket 4.2 14:18:54 10° S 14:24:19 60° E 14:29:50 10° NNE
Cosmos 1626 Rocket 3.7 14:20:33 10° S 14:24:49 53° E 14:29:10 10° NNE
Cosmos 1340 3.4 14:21:58 10° SSE 14:25:18 31° E 14:27:14 19° NE
Cosmos 1939 Rocket 3.2 14:21:15 10° S 14:25:20 71° WSW 14:29:24 10° NNW
Cosmos 1455 2.4 14:22:54 10° NNW 14:26:43 74° W 14:30:33 10° S
X-37B 2.5 14:24:48 10° SW 14:27:22 22° S 14:29:11 14° SE
CZ-2D R/B 3.2 14:24:25 10° SSE 14:28:16 86° ENE 14:32:07 10° NNW
CZ-2C R/B 3.9 14:28:14 20° ENE 14:29:01 20° E 14:33:04 10° SE
CZ-2C R/B 3.2 14:24:04 10° SSE 14:29:32 82° ENE 14:35:18 10° NNW
Meteor 2-8 Rocket 4.4 14:26:44 10° N 14:32:48 63° ENE 14:38:51 10° SSE
CZ-4B R/B 1.2 14:30:46 10° NNE 14:34:09 74° ESE 14:37:25 10° S
NOSS 3-1 (A) 4.0 14:28:12 10° NW 14:35:24 78° NE 14:43:54 10° SE
MOS 1 Rocket 3.1 14:32:07 10° NNE 14:36:22 56° E 14:40:35 10° S
Okean 1-7 Rocket 4.0 14:32:52 10° SSW 14:37:25 69° WNW 14:42:00 10° N
Cosmos 1689 Rocket 4.0 14:41:03 17° SSE 14:41:03 17° SSE 14:41:57 10° SSE
Cosmos 990 Rocket 4.1 14:34:45 10° S 14:39:49 56° ESE 14:43:58 15° NE
COSMO-SKYMED 1 2.5 14:35:55 10° NNE 14:40:18 76° ESE 14:44:38 10° S
Cosmos 2026 Rocket 4.1 14:35:04 10° SSE 14:40:57 50° E 14:46:58 10° NNE
Cosmos 1553 Rocket 4.3 14:34:54 10° N 14:41:04 45° ENE 14:47:07 10° SE
SeaSat 1 4.1 14:38:50 10° NNE 14:43:01 28° NW 14:47:11 10° W
ATLAS 2AS CENTAUR R/B 3.9 14:35:52 10° W 14:43:11 39° NNW 14:48:41 16° NE
COSMOS 2455 3.3 14:37:39 10° SW 14:43:37 61° NW 14:49:00 13° NNE
CZ-4C R/B 3.6 14:39:13 10° WNW 14:44:24 32° N 14:48:45 17° NE
Meteor 1-27 4.5 14:40:27 10° N 14:45:49 43° ENE 14:51:06 10° SE
CSL-04 Debris 4.2 14:42:22 10° SE 14:47:37 55° ENE 14:52:53 10° N
CZ-4 R/B 1.2 14:43:41 10° SSE 14:47:45 83° ENE 14:51:45 10° NNW
Cosmos 1758 Rocket 4.0 14:45:30 10° SSE 14:49:40 41° E 14:51:55 24° NE
Cosmos 1833 Rocket 2.6 14:44:58 10° NNW 14:50:36 68° NE 14:56:12 10° SE
SAR-Lupe-4 3.8 14:50:48 42° ENE 14:51:16 45° E 14:54:43 10° S
COSMOS 2406 3.2 14:47:38 10° NNW 14:53:28 79° ENE 14:59:14 10° SE
Cosmos-2242 3.0 14:50:04 10° N 14:54:18 55° ENE 14:58:31 10° SSE
USA 234 3.4 14:57:36 28° ENE 15:01:09 61° N 15:07:36 10° WNW
PSLV R/B 3.9 14:58:57 20° NNE 15:01:51 66° ESE 15:06:02 10° S
Ariane Rocket 4.0 15:03:04 27° NE 15:03:04 27° NE 15:06:30 10° N
Aureole 3 Rocket 2.2 14:59:11 10° NNW 15:02:16 86° WSW 15:05:48 10° S
Meteor 2-15 Rocket 4.4 14:57:03 10° N 15:03:10 61° ENE 15:09:15 10° SSE
H-2A R/B 3.8 14:59:17 10° N 15:03:15 32° WNW 15:07:07 10° SW
Cosmos 2082 Rocket 2.3 14:57:51 10° NNW 15:03:29 52° NE 15:05:53 32° ESE
Cosmos 1844 3.9 14:59:35 10° SW 15:05:15 70° WNW 15:10:04 15° NNE
S3M 4.1 14:59:51 10° N 15:05:45 47° ENE 15:11:28 11° SE
Cosmos 1602 Rocket 3.5 15:02:38 10° SSW 15:07:00 83° W 15:11:26 10° N
HJ-1C 3.4 15:07:26 64° NNE 15:07:26 64° NNE 15:10:26 10° N
SAR-Lupe-1 3.9 15:07:17 63° ENE 15:07:38 69° ESE 15:11:13 10° S
Cosmos 2195 Rocket 4.5 15:01:27 10° S 15:07:48 86° E 15:14:11 10° N
Cosmos 1703 3.5 15:04:42 10° SSW 15:08:34 67° WNW 15:12:16 11° N
Iridium 4 Rocket 3.6 15:03:42 10° N 15:09:21 88° W 15:14:29 10° S
USA 290 2.5 15:06:43 10° NNW 15:09:22 56° NNW 15:09:22 56° NNW
DMSP B5D1-3 4.5 15:06:17 16° NNE 15:10:16 57° E 15:15:17 10° S
Cosmos 1844 Rocket 3.3 15:05:54 10° SW 15:11:28 55° NW 15:16:12 14° NNE
YAOGAN 1 2.8 15:07:12 10° S 15:11:30 68° WSW 15:15:52 10° NNW
SJ 16-02 2.7 15:13:57 10° SW 15:18:03 37° WNW 15:21:44 12° N
Cosmos 1428 Rocket 4.4 15:12:10 10° S 15:18:28 86° E 15:24:50 10° N
Cosmos 2227 Rocket 4.5 15:16:32 10° NNW 15:18:29 12° N 15:20:27 10° NNE
NOSS 2-1 (E) 3.2 15:15:19 10° SW 15:18:07 59° S 15:18:07 59° S
Okean-O 3.3 15:15:13 10° S 15:19:34 56° WSW 15:23:58 10° NNW
Cosmos 405 3.7 15:17:03 10° NNW 15:20:31 54° W 15:23:57 10° S
Cosmos 1825 Rocket 3.6 15:18:44 10° S 15:22:30 57° SE 15:22:30 57° SE
Cosmos 1898 Rocket 3.5 15:19:07 10° SSW 15:24:23 81° WNW 15:27:29 25° NNE
Cosmos 1346 Rocket 4.5 15:21:22 10° S 15:22:50 22° S 15:22:50 22° S
USA 281 4.0 15:29:43 31° NE 15:29:48 31° NE 15:35:24 10° NNW
ISS -2.8 15:28:31 10° W 15:31:04 47° WSW 15:31:04 47° WSW
ATLAS 5 CENTAUR R/B 3.4 15:28:42 10° WNW 15:32:26 24° N 15:33:34 22° NNE
CSL-04 Rocket 3.8 15:27:20 10° SSE 15:32:46 76° WSW 15:38:20 10° NNW
Cosmos 2278 Rocket 2.2 15:27:41 10° S 15:33:13 57° ESE 15:33:27 56° ESE
Cosmos 1048 Rocket 3.9 15:29:40 10° NNW 15:34:43 63° ENE 15:34:43 63° ENE
MetOp-A 4.0 15:37:17 63° E 15:37:28 63° ENE 15:42:47 10° N
Cosmos 372 Rocket 4.3 15:34:52 10° S 15:39:01 51° SSE 15:39:01 51° SSE
Cosmos 494 Rocket 4.5 15:35:14 10° NNW 15:39:14 44° NNE 15:39:14 44° NNE
H-2A R/B 3.1 15:36:30 10° S 15:41:20 45° W 15:46:20 10° NNW
Cosmos 2098 Rocket 4.4 15:34:23 10° SSW 15:41:48 80° W 15:49:04 10° N
Cosmos 2297 Rocket 4.5 15:41:06 10° NNW 15:42:46 11° N 15:43:53 11° NNE
Helios 1A Rocket 4.3 15:41:10 10° SSW 15:45:04 39° W 15:48:59 10° NNW
Cosmos 44 3.8 15:43:50 10° WSW 15:48:41 57° NW 15:49:43 48° N
SL-08 RB Rocket 3.9 15:47:31 41° S 15:48:59 66° WSW 15:53:28 10° NNW
Cosmos 1937 Rocket 3.8 15:46:39 10° SW 15:51:57 67° WNW 15:53:46 41° N
Meteor 1-11 4.4 15:46:54 10° SSW 15:52:35 70° WNW 15:58:14 10° N
ERS-2 3.9 15:54:18 27° NW 15:55:03 30° WNW 15:58:15 10° SW
X-37B 3.8 16:01:06 10° WSW 16:01:28 12° SW 16:01:28 12° SW
ARGOS 4.3 15:58:22 10° SSW 16:03:27 43° W 16:08:35 10° NNW
NOSS 2-2 (C) 4.4 16:03:47 10° NW 16:08:05 65° N 16:08:05 65° N
CZ-2C R/B 2.7 16:09:43 78° NW 16:09:56 80° WNW 16:15:33 10° SSW
CZ-4C R/B 3.6 16:28:48 10° NW 16:33:56 35° N 16:33:56 35° N
ATLAS 2AS CENTAUR R/B 3.7 16:28:56 10° NW 16:36:04 37° NNE 16:36:07 37° NNE
USA 234 3.4 16:44:56 69° WNW 16:44:56 69° WNW 16:50:37 10° WNW
Cosmos 2082 Rocket 3.5 16:42:16 10° NW 16:47:24 35° WSW 16:47:48 35° WSW
USA 281 4.3 17:16:35 38° NNW 17:16:35 38° NNW 17:20:22 10° NNW
Cosmos 2278 Rocket 4.1 17:12:25 10° WSW 17:15:21 26° W 17:15:21 26° W
